Location: Observatoire
(46.1952°N, 5.3391°E)
Time: 06:05:15
(UTC+01:00)

Tiros 1 despin weight - Pass Details

Date: 17 February 2026
Orbit: 556 x 593 km, 48.2° (Epoch: 13 March)

Event Time Altitude Azimuth Distance (km) Brightness Sun altitude
Rises 21:25:59 0° 287° (WNW) 2,734 ? -34.6°
Reaches altitude 10° 21:28:21 10° 279° (W) 1,839 ? -35.0°
Enters shadow 21:29:06 14° 274° (W) 1,570 ? -35.1°
Maximum altitude 21:32:11 36° 213° (SSW) 898 - -35.6°
Drops below altitude 10° 21:36:03 10° 146° (SE) 1,844 - -36.2°
Sets 21:38:26 0° 138° (SE) 2,743 - -36.6°
